Location: Newark
(49.8348°N, 24.0280°E)
Time: 11:21:04
(UTC+00:00)

Courier 1B - Pass Details

Date: 24 January 2020
Orbit: 962 x 1209 km, 28.3° (Epoch: 25 February)

Event Time Altitude Azimuth Distance (km) Brightness Sun altitude
Exits shadow 04:21:52 - 228° (SW) 3,590 10.1 -16.9°
Reaches altitude 10° 04:24:42 10° 211° (SSW) 3,092 9.9 -16.4°
Maximum altitude 04:27:55 13° 186° (S) 2,884 10.0 -15.9°
Drops below altitude 10° 04:31:10 10° 161° (SSE) 3,130 10.6 -15.4°
Sets 04:35:57 0° 136° (SE) 4,104 11.8 -14.6°
